Wind_Speed
30 31 31 30 30 30 30 29 29 29 30 30 29 30 30 30 30 31 32 32 32 32 33 34 34 34 35 35 36 36 37 36 36 36 37 37 36 37
30 30 30 30 30 30 29 29 30 30 30 29 29 29 30 30 31 31 31 32 32 33 34 33 33 34 35 35 34 35 35 35 35 34 35 34 35 36
29 29 29 29 29 28 28 28 29 29 29 29 29 29 30 30 30 30 30 31 31 31 32 32 33 33 34 34 34 34 34 33 33 32 32 32 33 34
28 28 29 29 28 28 27 28 28 28 28 28 28 28 28 29 29 29 29 29 29 29 29 30 30 31 31 32 31 31 31 32 31 31 31 31 31 32
27 27 27 27 27 26 26 26 26 26 26 26 26 26 27 27 28 27 27 27 27 26 26 26 27 27 27 28 28 28 29 29 30 30 30 31 31 30
24 24 24 23 23 23 23 24 23 23 23 23 24 24 24 25 25 25 24 24 24 23 22 22 23 24 23 24 25 25 26 26 26 27 28 28 28 28
20 20 20 20 20 20 20 20 20 20 20 20 20 20 20 20 21 21 21 21 21 20 20 20 20 21 21 21 21 23 24 25 25 26 26 27 27 26
16 16 16 16 15 16 16 17 17 17 17 17 17 17 17 17 17 17 18 18 18 18 19 19 19 19 20 20 21 21 21 21 22 23 23 24 25 25
12 11 11 11 12 12 13 13 13 14 14 14 14 14 14 14 15 15 15 15 15 15 16 16 16 17 17 18 17 18 19 20 20 21 22 23 24 24
8 8 8 8 8 8 9 9 9 10 11 11 11 11 11 12 11 11 12 12 12 13 13 12 13 14 15 16 17 17 18 20 20 21 21 23 24 24
6 6 6 6 5 5 5 5 6 7 8 8 9 9 8 8 8 8 8 9 9 10 10 11 13 14 14 15 16 17 18 19 20 20 21 22 23 23
4 4 4 3 3 2 2 2 3 3 4 5 5 5 5 6 6 6 7 8 8 9 10 11 12 13 14 15 15 16 17 18 19 20 21 21 21 22
6 5 4 4 3 2 2 1 1 0 0 1 2 2 2 3 3 4 5 6 7 8 9 10 11 12 13 14 15 16 16 17 18 19 20 20 21 22
8 8 7 7 7 6 5 5 4 4 3 3 2 2 1 1 1 2 3 5 6 7 9 10 11 12 13 14 15 15 16 17 18 19 21 22 23 23
10 10 10 9 9 8 7 6 6 6 6 4 4 3 3 2 2 2 3 4 6 8 9 10 11 12 13 14 15 16 17 18 19 20 20 22 23 24
12 12 11 11 10 9 9 8 7 7 7 6 6 5 5 5 4 4 4 5 7 8 9 10 11 12 14 15 16 16 17 19 20 21 21 22 23 24
11 12 12 12 11 10 10 10 9 9 8 8 8 8 7 6 6 6 7 7 8 9 9 11 12 13 15 16 17 18 19 20 21 22 22 23 23 24
11 11 11 11 11 11 10 10 9 9 9 9 9 8 7 7 7 7 8 9 10 10 11 12 14 14 15 17 19 20 20 21 23 23 24 25 25 26
11 11 11 10 10 10 10 11 11 11 10 10 9 8 8 8 8 9 10 11 12 13 14 15 16 16 17 18 20 21 22 22 23 24 25 26 27 27
12 12 12 12 12 12 12 11 11 11 10 10 10 10 10 10 10 11 11 12 13 14 15 16 17 18 20 20 20 22 23 25 26 26 27 28 29 29
11 11 12 12 12 12 12 12 11 11 11 10 10 11 11 11 12 12 13 14 15 16 17 18 19 21 22 23 23 24 25 26 28 29 29 30 31 32
10 10 10 10 11 11 11 11 11 11 11 10 11 11 12 13 13 14 15 16 18 19 19 20 22 23 24 25 26 26 27 28 29 30 31 32 33 33
8 8 8 9 9 9 9 9 10 10 10 10 11 12 13 14 15 16 17 19 20 21 22 22 24 25 26 27 28 29 30 31 32 32 32 33 34 35
Wind_Direction
276 274 273 272 272 271 270 269 267 266 266 266 264 262 262 262 262 262 261 262 262 263 264 266 266 267 268 268 268 269 270 270 271 270 270 270 270 269
276 275 273 272 272 271 269 269 268 267 267 265 264 263 263 264 264 263 263 265 264 264 265 266 267 268 268 269 269 269 269 270 270 269 270 270 271 273
277 275 274 273 272 270 268 267 266 265 265 265 265 264 264 264 265 265 265 265 267 267 267 267 267 268 268 269 269 268 267 267 268 268 269 270 272 273
278 276 275 274 272 270 268 267 265 265 264 264 265 266 266 266 265 264 263 265 267 269 270 270 269 270 271 271 269 269 269 268 268 268 269 271 272 274
279 277 275 274 272 269 267 266 265 266 265 265 265 267 268 267 264 263 264 265 267 270 273 273 273 273 274 272 271 271 271 270 271 272 273 273 273 275
279 277 276 274 271 267 266 265 265 265 265 265 266 267 267 267 264 264 266 267 267 271 274 275 274 273 275 274 272 273 273 272 271 273 276 275 275 276
279 278 277 275 272 269 266 265 265 264 265 266 266 265 265 265 265 266 267 267 267 270 273 274 274 273 273 274 275 274 275 274 273 273 276 276 276 276
282 279 279 277 273 270 266 265 264 261 262 264 264 264 266 266 266 265 264 265 267 269 270 271 272 273 275 276 277 277 279 278 276 276 276 277 276 277
288 282 282 280 275 270 266 264 263 260 260 262 261 261 261 261 261 261 263 267 271 270 271 272 273 275 277 278 279 278 278 280 279 280 281 281 279 278
296 288 285 281 278 272 268 264 261 257 259 258 254 254 254 255 256 257 261 266 270 274 278 280 282 283 284 283 280 280 282 282 282 284 287 286 284 281
313 304 297 295 290 281 269 263 258 254 254 251 249 247 250 252 254 256 262 266 270 276 282 285 286 287 287 286 286 286 286 285 286 290 291 289 286 284
344 337 332 323 318 302 276 264 258 257 251 250 248 246 246 252 252 255 263 270 276 282 285 286 288 289 291 289 291 293 293 291 293 294 294 293 290 287
19 23 29 34 44 58 80 101 127 119 153 197 212 221 218 233 246 256 266 277 283 285 287 289 293 295 296 295 294 295 297 299 300 299 297 294 293 291
47 48 57 66 72 76 85 88 86 91 85 97 101 111 137 199 258 281 289 292 294 295 296 299 302 303 302 302 302 301 302 304 304 303 302 300 297 295
58 58 66 72 75 73 77 83 84 82 79 79 87 87 76 64 41 2 333 320 309 308 308 308 309 310 310 308 306 304 303 304 305 306 306 304 301 299
64 66 67 67 68 67 69 76 82 82 79 79 79 78 74 66 52 29 3 345 334 325 321 320 320 319 316 313 312 310 308 307 307 307 306 305 304 301
67 68 68 67 66 69 69 71 72 71 72 71 69 66 61 55 45 32 18 5 353 344 336 331 327 325 322 319 318 315 313 311 309 307 305 305 305 302
69 68 67 67 68 69 69 70 71 69 65 66 64 60 50 37 26 15 5 357 351 346 341 336 332 328 325 321 319 316 313 312 311 310 308 307 307 305
69 68 66 64 64 64 64 65 65 63 59 58 53 47 38 29 20 10 2 355 350 346 341 337 333 330 328 324 322 319 317 315 314 313 311 309 309 307
68 68 67 65 63 61 60 59 57 55 52 47 40 35 28 21 14 7 360 354 351 347 343 339 335 332 331 329 327 324 321 319 317 315 313 311 310 308
65 65 65 63 61 58 56 55 51 48 44 38 32 26 21 15 9 2 357 352 349 346 342 339 336 333 332 330 329 326 323 320 318 316 314 312 310 310
61 60 59 57 53 50 49 45 41 38 33 27 22 17 12 7 2 358 353 350 347 344 341 339 337 334 331 330 329 327 325 322 320 319 317 314 313 312
53 51 50 47 43 40 36 31 26 21 16 11 7 3 0 357 354 351 348 346 345 342 340 337 335 333 331 329 328 327 326 325 323 321 319 317 315 313
Height
5773 5772 5772 5771 5771 5771 5770 5770 5771 5771 5771 5771 5771 5771 5772 5773 5773 5774 5775 5776 5776 5777 5778 5778 5778 5779 5779 5779 5779 5779 5779 5779 5780 5780 5780 5779 5779 5779
5764 5764 5763 5763 5762 5762 5762 5762 5763 5763 5763 5763 5764 5764 5764 5765 5766 5767 5768 5768 5768 5769 5770 5770 5770 5771 5771 5771 5771 5771 5771 5771 5771 5771 5771 5770 5770 5770
5756 5756 5755 5755 5754 5754 5754 5754 5755 5755 5756 5756 5756 5756 5757 5758 5758 5759 5759 5760 5761 5761 5762 5762 5762 5762 5762 5762 5763 5762 5762 5762 5763 5763 5762 5762 5762 5761
5748 5748 5747 5746 5746 5746 5746 5746 5747 5747 5748 5749 5749 5749 5750 5750 5751 5752 5752 5753 5753 5754 5754 5754 5754 5754 5754 5754 5754 5754 5754 5754 5754 5754 5754 5754 5753 5752
5740 5739 5739 5738 5738 5738 5738 5739 5740 5740 5741 5741 5742 5742 5743 5743 5744 5745 5745 5746 5746 5747 5747 5747 5747 5747 5747 5747 5747 5747 5746 5746 5746 5746 5745 5745 5744 5744
5733 5732 5731 5731 5731 5731 5731 5732 5732 5733 5734 5735 5735 5736 5736 5737 5738 5739 5739 5740 5740 5740 5740 5740 5740 5740 5740 5740 5740 5739 5739 5739 5738 5738 5737 5737 5736 5736
5727 5726 5725 5725 5724 5725 5725 5725 5726 5727 5728 5728 5729 5730 5731 5731 5732 5733 5733 5734 5735 5735 5735 5735 5735 5734 5733 5733 5733 5732 5732 5732 5731 5731 5730 5730 5729 5728
5721 5720 5720 5719 5719 5719 5719 5720 5720 5721 5722 5723 5724 5725 5726 5726 5727 5728 5728 5729 5730 5730 5730 5729 5729 5728 5728 5727 5727 5726 5726 5725 5725 5724 5723 5723 5722 5721
5717 5716 5715 5715 5714 5714 5714 5715 5715 5716 5718 5719 5720 5720 5721 5722 5723 5723 5724 5725 5725 5725 5725 5725 5724 5723 5722 5722 5721 5721 5720 5720 5719 5718 5717 5716 5715 5714
5714 5713 5712 5712 5711 5711 5711 5711 5712 5713 5714 5715 5716 5717 5718 5718 5719 5720 5720 5721 5721 5721 5721 5721 5720 5719 5718 5717 5717 5716 5715 5714 5713 5712 5711 5710 5709 5708
5712 5711 5710 5710 5709 5709 5709 5709 5710 5710 5711 5711 5712 5713 5714 5715 5715 5716 5717 5718 5718 5718 5718 5717 5717 5716 5714 5713 5712 5711 5710 5709 5708 5707 5705 5704 5702 5701
5712 5710 5709 5709 5708 5708 5708 5708 5708 5708 5709 5709 5710 5711 5712 5712 5713 5714 5715 5716 5716 5716 5715 5714 5713 5712 5711 5710 5708 5707 5705 5704 5703 5701 5700 5698 5696 5694
5711 5710 5709 5708 5708 5708 5708 5708 5708 5708 5708 5708 5709 5710 5710 5711 5712 5713 5713 5713 5714 5713 5713 5712 5711 5709 5708 5707 5705 5703 5701 5699 5698 5696 5694 5692 5690 5688
5713 5712 5710 5710 5709 5709 5709 5709 5709 5709 5709 5709 5709 5709 5710 5710 5711 5711 5711 5711 5711 5711 5710 5709 5708 5706 5705 5703 5701 5699 5697 5695 5693 5691 5689 5686 5684 5682
5715 5714 5713 5712 5712 5711 5711 5710 5710 5710 5710 5710 5710 5710 5710 5710 5710 5710 5710 5710 5710 5709 5708 5706 5705 5703 5701 5700 5698 5695 5693 5691 5688 5686 5683 5681 5678 5675
5718 5717 5716 5715 5715 5714 5713 5713 5712 5712 5712 5711 5711 5711 5711 5711 5711 5710 5710 5709 5708 5707 5706 5704 5702 5700 5698 5696 5694 5691 5688 5686 5683 5680 5678 5675 5672 5668
5722 5721 5720 5719 5717 5716 5716 5715 5715 5714 5714 5713 5713 5713 5712 5712 5711 5710 5710 5708 5707 5706 5704 5702 5700 5697 5695 5692 5689 5686 5683 5681 5678 5675 5672 5669 5665 5662
5725 5724 5723 5722 5721 5720 5719 5718 5717 5716 5716 5715 5715 5714 5714 5713 5712 5711 5709 5708 5706 5704 5702 5699 5697 5695 5692 5689 5685 5682 5679 5675 5672 5668 5665 5662 5658 5655
5728 5727 5726 5725 5724 5723 5722 5721 5720 5719 5718 5717 5717 5716 5715 5713 5712 5710 5709 5707 5705 5702 5700 5697 5694 5691 5689 5686 5682 5677 5673 5670 5666 5662 5658 5654 5651 5647
5731 5730 5729 5728 5727 5726 5725 5724 5723 5722 5721 5720 5718 5717 5715 5714 5712 5710 5708 5706 5703 5701 5698 5695 5691 5688 5684 5681 5678 5674 5668 5664 5660 5656 5652 5647 5643 5639
5735 5734 5733 5732 5730 5729 5728 5727 5725 5724 5723 5721 5720 5718 5716 5714 5712 5710 5707 5705 5702 5699 5696 5692 5688 5684 5680 5677 5673 5669 5664 5659 5654 5649 5644 5639 5635 5630
5738 5737 5736 5735 5733 5732 5730 5729 5728 5726 5724 5723 5721 5719 5716 5714 5712 5709 5706 5703 5700 5696 5693 5689 5685 5681 5676 5672 5667 5663 5658 5653 5648 5642 5637 5631 5626 5621
5740 5739 5738 5737 5735 5734 5732 5731 5729 5727 5725 5723 5721 5719 5716 5714 5711 5708 5705 5701 5698 5694 5689 5685 5681 5676 5672 5667 5662 5657 5651 5646 5641 5635 5630 5623 5618 5612